Location: Berlise
(49.6641°N, 4.1077°E)
Time: 01:11:08
(UTC+00:00)

USA 306 - Pass Details

Date: 27 January 2021
Orbit: 569 x 574 km, 54.0° (Epoch: 27 February)

Event Time Altitude Azimuth Distance (km) Brightness Sun altitude
Exits shadow 06:38:29 - 267° (W) 2,098 5.2 -7.4°
Reaches altitude 10° 06:39:04 10° 268° (W) 1,871 4.9 -7.3°
Maximum altitude 06:43:15 54° 347° (NNW) 695 3.1 -6.6°
Drops below altitude 10° 06:47:26 10° 65° (ENE) 1,876 6.2 -6.0°
Sets 06:49:44 0° 70° (ENE) 2,775 7.3 -5.7°
